Wind_Speed
10 11 11 12 12 13 13 13 13 13 13 12 11 10 9 8 7 6 6 5 4 4 4 4 5 6 8 9 11 13 16 16 17 17 15 14 12 10 9 9 9 9 9
8 9 10 10 10 11 11 12 12 13 12 12 12 11 11 10 9 8 7 5 4 4 3 3 4 4 5 6 8 10 12 14 16 16 16 15 13 12 12 11 11 11 10
7 7 8 8 8 9 9 10 11 11 11 12 12 12 11 11 10 9 8 6 5 4 4 3 3 3 4 4 5 6 8 11 12 14 15 15 14 13 12 11 11 11 10
6 6 6 6 6 7 7 8 9 9 10 10 11 11 12 11 11 10 9 8 6 5 4 3 3 3 3 3 3 4 5 8 9 11 13 13 13 13 12 11 10 10 10
6 6 6 5 5 5 6 6 6 7 8 8 9 10 10 11 11 11 10 9 7 6 5 4 3 2 2 2 2 3 4 5 6 8 9 10 11 11 10 10 10 9 9
6 7 6 6 5 5 5 5 4 5 6 6 7 8 9 9 10 10 10 9 8 7 6 4 3 2 2 2 3 2 3 4 4 6 7 7 8 8 8 7 7 7 7
6 7 7 7 7 6 6 5 4 4 4 4 5 6 6 7 8 8 8 8 8 7 6 5 4 3 2 2 2 3 3 3 3 4 5 5 6 6 6 5 4 4 4
7 7 8 8 9 9 8 7 6 5 4 4 3 3 4 5 5 6 6 7 7 7 6 5 5 4 3 2 2 3 3 3 3 4 4 4 4 4 4 4 3 1 1
8 9 9 10 10 10 10 10 9 8 7 5 4 3 2 2 3 3 4 4 5 5 5 5 5 4 3 2 3 3 4 4 4 4 4 4 4 4 4 4 3 2 1
8 10 11 12 12 13 13 13 12 11 10 9 7 6 5 4 3 2 2 2 2 3 3 4 4 4 4 3 3 3 4 5 5 6 5 5 5 5 5 4 4 3 2
9 10 12 13 14 15 16 16 15 14 13 12 11 10 8 7 5 4 3 3 2 1 1 1 2 3 3 3 3 3 4 5 6 6 6 6 6 6 6 6 5 4 3
12 12 13 15 16 16 17 18 18 18 17 16 15 13 12 10 8 7 6 5 4 3 2 2 1 1 2 2 3 3 4 5 6 7 7 6 6 5 6 6 5 4 3
16 16 17 17 18 19 20 20 20 20 20 19 18 17 15 14 12 10 9 7 7 6 5 4 4 3 2 1 2 3 4 4 5 6 6 6 6 6 6 5 5 4 4
21 20 21 21 22 23 23 24 24 23 23 22 21 20 19 17 15 13 12 10 9 9 8 7 7 6 5 4 4 3 4 4 5 6 6 6 6 6 6 6 5 5 5
24 24 24 25 26 26 27 27 27 27 26 25 24 23 22 21 19 17 15 14 12 11 11 10 10 9 9 7 7 6 6 6 6 6 7 7 7 7 7 7 7 6 6
28 28 28 29 30 30 31 31 30 29 29 28 28 27 26 24 23 21 19 17 15 14 13 13 12 12 12 11 10 9 9 8 8 8 8 8 8 8 8 8 8 8 8
33 33 32 33 33 33 33 33 33 34 33 31 31 30 29 28 27 25 22 19 17 16 15 14 14 14 14 14 13 12 12 11 11 11 11 10 11 11 10 10 10 10 10
38 38 37 38 37 36 35 36 36 36 37 35 34 33 31 30 28 27 25 22 20 19 18 17 16 16 16 16 15 15 15 14 14 14 14 13 13 13 13 13 13 12 12
42 43 43 43 42 41 40 39 38 38 37 37 37 35 33 32 30 28 27 25 23 22 21 20 19 18 17 17 17 17 17 17 17 17 17 17 16 16 17 16 16 15 15
44 45 46 47 47 47 45 44 42 40 39 39 39 39 38 35 33 31 30 28 26 24 23 22 21 21 20 19 19 19 19 19 20 19 19 20 20 19 19 19 19 18 18
44 46 47 49 50 49 49 48 47 44 43 42 41 38 38 37 35 34 31 29 27 25 24 23 22 22 22 21 21 21 21 22 22 22 22 22 22 22 21 22 22 22 21
44 45 47 48 49 50 51 51 50 49 47 46 44 42 39 36 35 34 33 32 30 27 26 25 24 24 24 24 23 23 23 23 24 24 25 25 25 25 25 24 24 24 24
42 43 44 46 47 48 49 50 50 50 51 50 47 44 42 38 36 34 33 33 31 28 26 26 26 24 24 24 25 25 25 25 26 26 26 27 27 27 27 27 26 26 26
37 38 40 42 44 45 47 47 49 49 49 49 47 47 45 42 39 36 33 31 29 28 27 27 26 25 25 26 26 27 28 27 27 28 28 28 28 28 28 28 28 28 27
29 30 32 34 36 39 40 42 44 45 46 47 46 45 44 43 40 37 34 32 30 29 28 28 27 27 26 26 27 27 28 29 29 29 29 29 30 30 30 29 29 29 29
23 23 24 25 27 30 33 34 37 40 41 42 43 43 43 41 39 37 36 34 32 31 30 30 29 29 28 28 28 28 29 30 32 31 30 31 31 31 31 30 30 30 30
Wind_Direction
108 103 98 96 93 90 88 88 88 87 87 87 88 89 89 89 90 91 93 100 114 135 153 167 180 197 207 215 222 225 222 222 224 224 228 232 233 239 247 255 261 273 287
119 112 106 102 98 95 92 90 88 87 86 86 85 85 85 85 84 82 83 89 100 114 126 150 170 187 201 214 221 222 221 225 226 228 232 230 236 245 253 259 263 269 279
136 127 118 111 106 102 98 95 92 88 86 85 83 81 80 80 80 78 77 83 91 101 112 131 154 175 189 201 210 215 218 223 225 230 232 234 239 245 253 261 265 266 271
155 148 139 129 119 112 107 102 99 95 90 87 84 81 79 78 77 76 75 78 84 91 99 111 131 158 182 195 202 205 211 220 228 229 233 236 237 243 252 259 265 268 268
173 170 166 160 149 136 126 116 109 104 98 93 89 84 81 80 77 74 73 74 79 83 86 91 100 125 148 167 177 186 199 213 227 225 227 228 232 241 251 259 263 267 266
190 188 188 190 187 177 162 147 132 119 110 102 97 92 87 83 79 75 72 71 72 74 75 79 87 101 125 147 160 176 187 198 210 214 217 221 226 237 248 256 266 268 262
206 205 205 209 211 208 201 190 177 158 138 123 111 102 97 91 85 79 74 70 67 68 67 67 74 87 114 141 154 170 178 176 181 186 196 207 215 228 238 241 256 263 260
222 220 220 221 223 224 221 216 212 204 189 169 148 129 113 103 96 88 79 72 68 64 63 62 65 75 99 128 153 167 169 164 160 165 178 190 201 209 210 214 214 221 250
238 233 230 230 230 231 230 229 228 226 222 216 208 196 176 145 121 108 95 83 74 67 63 60 61 66 81 112 144 158 162 161 165 169 165 170 180 176 171 165 162 157 139
254 248 243 239 237 237 236 235 236 236 236 235 233 231 227 217 199 175 148 123 96 78 69 63 60 63 71 92 127 155 161 162 166 168 159 155 158 161 162 160 151 148 140
265 260 255 251 247 243 242 240 240 241 242 243 244 243 240 236 230 223 214 206 198 184 118 79 65 65 72 87 111 135 154 160 166 163 160 156 154 156 158 157 154 151 145
266 264 260 256 253 250 247 245 244 244 245 246 247 247 246 242 239 235 231 229 228 227 224 216 203 101 81 93 120 137 147 159 165 166 166 164 164 166 164 163 163 166 161
266 263 262 258 255 253 251 249 246 245 245 246 246 246 246 245 242 239 237 238 238 237 235 232 228 222 204 174 156 159 163 174 176 177 179 177 177 176 176 179 180 185 188
264 263 260 260 258 255 252 250 248 246 245 245 245 245 245 245 244 242 241 241 243 243 241 239 237 232 225 218 213 205 195 193 197 197 196 195 191 189 192 198 202 206 206
264 263 260 259 257 254 251 249 247 246 245 245 243 243 243 243 243 243 243 244 243 243 243 241 241 238 232 226 226 226 219 213 213 212 209 208 206 204 206 210 214 218 221
261 260 261 259 256 255 253 248 245 244 244 243 243 242 241 241 241 242 243 243 243 242 242 241 241 241 238 232 229 228 226 223 223 221 219 218 217 216 216 218 221 225 230
261 259 258 258 256 254 252 251 249 245 243 242 241 241 240 240 240 239 240 241 243 243 241 241 241 242 241 237 233 231 229 228 229 229 228 226 226 226 226 227 229 233 238
261 259 257 256 256 254 253 252 251 249 246 244 242 242 241 239 240 239 237 240 242 243 243 242 242 242 242 242 239 235 233 232 232 233 233 232 232 233 233 233 233 236 240
262 260 258 256 255 254 253 253 252 251 248 247 245 245 244 243 240 240 240 241 244 245 246 245 244 243 244 245 243 240 237 236 236 235 235 236 237 238 238 238 238 240 242
262 261 259 258 257 256 255 254 251 250 250 250 249 249 248 246 243 241 242 243 244 245 246 246 246 245 245 244 244 243 242 240 240 240 240 240 241 242 242 242 242 244 246
266 263 261 260 258 257 255 254 254 253 251 251 249 249 249 248 246 244 244 244 245 245 246 248 248 247 245 245 246 245 246 244 244 244 245 245 244 244 245 246 247 248 249
269 267 264 262 261 259 257 255 254 254 252 251 251 251 251 251 248 246 245 246 246 245 246 248 249 248 248 249 248 248 247 246 247 247 248 248 248 248 249 251 251 251 251
273 270 267 266 264 262 260 257 254 253 253 252 252 252 253 253 249 247 247 246 248 248 248 248 249 250 251 252 252 250 249 249 249 250 250 251 251 251 252 253 254 254 253
277 273 271 268 266 264 261 259 255 253 252 251 251 252 252 251 250 249 248 248 249 249 249 249 251 252 251 251 253 252 250 250 251 252 253 253 253 253 254 255 255 255 254
283 280 275 271 267 264 261 258 255 251 250 250 250 250 249 249 249 248 248 251 251 251 250 251 253 252 251 253 253 251 251 251 251 252 254 255 256 255 255 256 255 255 255
292 286 281 275 269 264 259 255 251 249 248 249 249 249 248 247 249 249 249 249 250 252 251 251 252 251 251 253 253 252 252 252 251 251 251 254 255 255 256 255 255 256 256
Height
5925 5924 5924 5924 5923 5923 5922 5922 5921 5920 5919 5918 5917 5916 5915 5914 5913 5913 5912 5912 5912 5912 5912 5912 5912 5913 5913 5914 5914 5915 5916 5918 5919 5920 5921 5922 5923 5923 5923 5924 5924 5924 5923
5926 5925 5925 5925 5925 5924 5924 5923 5922 5921 5920 5919 5918 5917 5916 5915 5914 5913 5913 5912 5912 5912 5912 5912 5912 5912 5913 5913 5914 5914 5915 5916 5917 5918 5919 5920 5921 5922 5922 5922 5922 5922 5922
5926 5926 5926 5926 5926 5925 5925 5924 5923 5922 5921 5920 5919 5918 5917 5916 5915 5914 5913 5913 5912 5912 5912 5912 5912 5912 5912 5913 5913 5913 5914 5915 5916 5917 5918 5919 5919 5920 5921 5921 5921 5921 5921
5926 5926 5926 5926 5926 5926 5925 5925 5924 5923 5922 5921 5920 5919 5918 5917 5916 5915 5914 5913 5913 5912 5912 5912 5912 5912 5912 5912 5912 5913 5913 5914 5915 5916 5916 5917 5918 5919 5919 5920 5920 5920 5920
5926 5926 5925 5925 5926 5925 5925 5925 5924 5924 5923 5922 5921 5920 5919 5918 5917 5916 5915 5914 5914 5913 5913 5912 5912 5912 5912 5912 5912 5912 5913 5913 5914 5914 5915 5916 5917 5917 5918 5919 5919 5919 5919
5925 5925 5925 5925 5925 5925 5925 5925 5924 5924 5923 5922 5922 5921 5920 5919 5918 5917 5916 5915 5914 5914 5913 5912 5912 5912 5912 5912 5912 5912 5912 5912 5913 5913 5914 5915 5916 5917 5917 5918 5918 5918 5918
5924 5924 5924 5924 5924 5924 5924 5924 5923 5923 5923 5922 5921 5921 5920 5919 5919 5918 5917 5916 5915 5914 5913 5913 5912 5912 5912 5912 5912 5912 5912 5912 5912 5913 5913 5914 5915 5916 5916 5917 5917 5917 5917
5924 5923 5923 5923 5923 5923 5923 5922 5922 5922 5922 5921 5921 5920 5920 5919 5919 5918 5917 5917 5916 5915 5914 5913 5913 5912 5912 5911 5911 5912 5912 5912 5912 5913 5913 5914 5914 5915 5916 5916 5916 5916 5917
5923 5922 5922 5922 5921 5921 5921 5921 5921 5920 5920 5920 5920 5919 5919 5919 5918 5918 5917 5917 5916 5915 5915 5914 5913 5912 5912 5911 5911 5912 5912 5912 5912 5913 5913 5914 5914 5915 5915 5916 5916 5917 5917
5921 5921 5920 5920 5920 5920 5919 5919 5919 5919 5919 5918 5918 5918 5918 5918 5917 5917 5917 5916 5916 5916 5915 5914 5914 5913 5912 5912 5912 5912 5912 5912 5912 5912 5913 5913 5914 5915 5915 5916 5916 5917 5917
5920 5919 5919 5918 5918 5917 5917 5917 5917 5917 5916 5916 5916 5916 5916 5916 5916 5916 5916 5916 5915 5915 5915 5914 5914 5913 5913 5912 5912 5912 5912 5912 5912 5912 5913 5914 5914 5915 5915 5916 5916 5917 5917
5917 5917 5916 5916 5915 5915 5914 5914 5914 5914 5914 5914 5914 5914 5914 5914 5914 5914 5914 5914 5914 5914 5914 5914 5913 5913 5913 5912 5912 5912 5912 5912 5912 5913 5913 5914 5914 5915 5915 5916 5917 5917 5918
5914 5913 5913 5912 5912 5912 5911 5911 5911 5911 5911 5911 5911 5911 5911 5911 5911 5911 5912 5912 5912 5912 5912 5912 5912 5912 5912 5912 5912 5912 5912 5912 5912 5913 5913 5914 5914 5915 5915 5916 5917 5917 5918
5909 5909 5908 5907 5907 5907 5906 5906 5906 5906 5906 5906 5907 5907 5908 5908 5908 5909 5909 5909 5910 5910 5910 5911 5911 5911 5911 5911 5911 5912 5912 5912 5912 5912 5913 5913 5914 5915 5915 5916 5916 5917 5917
5903 5903 5902 5902 5901 5900 5900 5900 5900 5901 5901 5901 5902 5902 5903 5903 5904 5905 5906 5906 5906 5907 5908 5908 5908 5909 5909 5910 5910 5910 5911 5911 5911 5912 5912 5913 5913 5914 5915 5915 5916 5916 5917
5897 5896 5895 5895 5894 5893 5893 5893 5893 5894 5894 5895 5895 5896 5897 5898 5899 5900 5901 5902 5903 5903 5904 5905 5905 5906 5907 5907 5908 5908 5909 5910 5910 5910 5911 5911 5912 5913 5914 5914 5915 5915 5916
5889 5888 5888 5887 5886 5886 5886 5886 5886 5886 5887 5887 5888 5890 5891 5892 5893 5895 5896 5897 5898 5899 5900 5901 5901 5902 5903 5904 5905 5906 5906 5907 5908 5909 5909 5910 5910 5911 5912 5912 5913 5914 5914
5880 5880 5879 5879 5879 5879 5878 5878 5878 5878 5879 5880 5881 5882 5884 5885 5887 5888 5890 5892 5893 5894 5896 5897 5897 5898 5899 5900 5901 5902 5903 5904 5905 5906 5907 5907 5908 5909 5909 5910 5911 5911 5912
5870 5870 5870 5870 5870 5870 5870 5870 5870 5870 5871 5872 5873 5874 5876 5878 5880 5882 5884 5886 5887 5889 5890 5891 5893 5894 5895 5896 5897 5898 5899 5900 5901 5902 5903 5904 5905 5906 5907 5907 5908 5908 5909
5859 5859 5858 5859 5859 5860 5860 5861 5862 5862 5864 5865 5866 5867 5869 5871 5872 5874 5876 5879 5880 5882 5884 5886 5887 5889 5890 5891 5893 5894 5895 5896 5897 5898 5899 5900 5901 5902 5903 5904 5904 5905 5905
5847 5847 5847 5847 5847 5848 5849 5850 5851 5852 5854 5856 5857 5858 5860 5863 5865 5867 5869 5871 5873 5875 5878 5880 5881 5883 5884 5886 5887 5889 5890 5891 5892 5894 5895 5896 5897 5898 5898 5899 5900 5900 5901
5835 5834 5834 5834 5835 5836 5837 5838 5839 5841 5844 5846 5848 5850 5852 5855 5857 5859 5862 5864 5866 5868 5871 5873 5875 5876 5878 5880 5882 5883 5884 5886 5887 5888 5889 5891 5892 5893 5893 5894 5895 5895 5896
5822 5821 5821 5821 5821 5822 5824 5825 5827 5830 5832 5835 5838 5840 5843 5846 5849 5852 5854 5856 5858 5861 5863 5865 5868 5870 5872 5873 5875 5877 5878 5880 5881 5882 5883 5884 5886 5887 5888 5889 5889 5890 5890
5810 5809 5808 5808 5808 5809 5810 5812 5815 5818 5821 5824 5827 5830 5834 5837 5841 5844 5846 5849 5851 5853 5856 5858 5860 5862 5864 5866 5868 5869 5871 5873 5874 5876 5877 5878 5879 5880 5881 5882 5883 5884 5885
5801 5799 5797 5796 5796 5796 5797 5799 5802 5805 5809 5812 5816 5820 5824 5828 5832 5835 5838 5841 5843 5845 5848 5850 5853 5854 5856 5858 5860 5862 5863 5865 5867 5869 5870 5871 5872 5873 5875 5875 5876 5877 5878
5793 5790 5788 5787 5786 5785 5786 5788 5790 5794 5798 5802 5806 5810 5814 5818 5822 5825 5829 5832 5834 5837 5840 5842 5844 5847 5849 5851 5853 5854 5856 5857 5859 5861 5862 5863 5865 5866 5867 5868 5869 5870 5872